Rome, GA

7:57 AM EST on November 20, 2019 (GMT -0500)
Russell

Weather History for KRMG - September, 2019

Change the Weather History Date:

Friday, September 13, 2019

  Actual Average Record
Temperature  
Mean Temperature 85 °F 73 °F  
Max Temperature 100 °F 85 °F 95 °F (2005)
Min Temperature 69 °F 61 °F 49 °F (2015)
Degree Days  
Heating Degree Days 0 0  
Month to date heating degree days 0 0  
Since 1 July heating degree days 0 0  
Cooling Degree Days 20 8  
Month to date cooling degree days 213 127  
Year to date cooling degree days 1972 1493  
Growing Degree Days 35 (Base 50)    
Moisture  
Dew Point 66 °F    
Average Humidity 59    
Maximum Humidity 90    
Minimum Humidity 27    
Precipitation  
Precipitation T in 0.12 in 0.47 in (2006)
Month to date precipitation T 1.30  
Year to date precipitation 42.45 36.72  
Sea Level Pressure  
Sea Level Pressure 30.10 in    
Wind  
Wind Speed 2 mph ()    
Max Wind Speed 16 mph    
Max Gust Speed 22 mph    
Visibility 9.5 miles    
Events Rain , Thunderstorm    
T = Trace of Precipitation, MM = Missing Value Source: Averaged Metar Reports

Daily Weather History Graph

Daily Weather History Graph

Search for Another Location

Airport or City:

Astronomy

Sep. 13, 2019 Rise Set
Actual Time 7:22 AM EDT 7:50 PM EDT
Civil Twilight 6:56 AM EDT 8:15 PM EDT
Nautical Twilight 6:27 AM EDT 8:45 PM EDT
Astronomical Twilight 5:57 AM EDT 9:15 PM EDT
Moon 8:00 PM EDT (9/13) 6:42 AM EDT (9/13)
Length of Visible Light 13h 18m
Length of Day
12h 28m
Full, 100% of the Moon is Illuminated
Sep 13
Full
Sep 14
Full
Sep 21
Last Quarter
Sep 28
New
Oct 5
First Quarter

Hourly Weather History & Observations

Time (EDT) Temp. Heat Index Dew Point Humidity Pressure Visibility Wind Dir Wind Speed Gust Speed Precip Events Conditions
12:53 AM 75.9 °F - 69.1 °F 79% 30.07 in 10.0 mi NNE 5.8 mph - N/A   Clear
1:53 AM 73.9 °F - 68.0 °F 82% 30.08 in 10.0 mi Calm Calm - N/A   Clear
2:53 AM 73.0 °F - 68.0 °F 84% 30.09 in 10.0 mi Calm Calm - N/A   Clear
3:53 AM 72.0 °F - 68.0 °F 87% 30.09 in 10.0 mi Calm Calm - N/A   Clear
4:53 AM 71.1 °F - 66.9 °F 87% 30.09 in 9.0 mi Calm Calm - N/A   Clear
5:53 AM 70.0 °F - 66.9 °F 90% 30.10 in 10.0 mi NNE 4.6 mph - N/A   Clear
6:53 AM 70.0 °F - 66.0 °F 87% 30.11 in 9.0 mi Calm Calm - N/A   Clear
7:53 AM 69.1 °F - 66.0 °F 90% 30.12 in 8.0 mi Calm Calm - N/A   Clear
8:53 AM 75.0 °F - 66.9 °F 76% 30.13 in 6.0 mi Calm Calm - N/A   Haze
9:53 AM 81.0 °F 84.1 °F 69.1 °F 67% 30.14 in 6.0 mi Calm Calm - N/A   Haze
10:53 AM 87.1 °F 91.3 °F 69.1 °F 55% 30.15 in 9.0 mi Variable 4.6 mph - N/A   Clear
11:53 AM 91.9 °F 97.4 °F 70.0 °F 48% 30.15 in 10.0 mi Variable 4.6 mph - N/A   Clear
12:53 PM 95.0 °F 97.4 °F 64.9 °F 37% 30.13 in 10.0 mi Calm Calm - N/A   Clear
1:53 PM 97.0 °F 99.3 °F 64.0 °F 34% 30.11 in 10.0 mi East 5.8 mph - N/A   Clear
2:53 PM 98.1 °F 99.6 °F 63.0 °F 31% 30.09 in 10.0 mi Variable 3.5 mph - N/A   Clear
3:53 PM 97.0 °F 98.3 °F 63.0 °F 32% 30.07 in 10.0 mi East 5.8 mph - N/A   Clear
4:53 PM 100.0 °F 101.2 °F 61.0 °F 28% 30.04 in 10.0 mi Calm Calm - N/A   Clear
5:46 PM 99.0 °F 99.5 °F 61.0 °F 28% 30.07 in 10.0 mi Variable 4.6 mph - N/A Thunderstorm Clear
5:53 PM 99.0 °F 100.5 °F 62.1 °F 30% 30.04 in 10.0 mi ENE 6.9 mph - N/A Thunderstorm Clear
6:06 PM 98.1 °F 98.6 °F 61.0 °F 29% 30.08 in 10.0 mi ENE 6.9 mph - N/A   Clear
6:53 PM 93.9 °F 96.1 °F 64.9 °F 38% 30.06 in 10.0 mi NE 6.9 mph - N/A   Partly Cloudy
7:53 PM 89.1 °F 91.3 °F 66.0 °F 46% 30.07 in 10.0 mi Calm Calm - N/A   Clear
8:53 PM 84.9 °F 88.2 °F 68.0 °F 57% 30.09 in 10.0 mi Calm Calm - N/A   Clear
9:27 PM 84.0 °F 87.8 °F 69.1 °F 61% 30.14 in 10.0 mi Calm Calm - N/A Thunderstorm Mostly Cloudy
9:42 PM 84.0 °F 87.8 °F 69.1 °F 61% 30.14 in 10.0 mi ENE 3.5 mph - N/A   Mostly Cloudy
9:53 PM 82.0 °F 85.5 °F 69.1 °F 65% 30.12 in 10.0 mi Calm Calm - N/A   Scattered Clouds
10:53 PM 81.0 °F 83.8 °F 68.0 °F 65% 30.14 in 10.0 mi SSW 3.5 mph - N/A   Clear
11:53 PM 79.0 °F - 69.1 °F 72% 30.18 in 10.0 mi SE 12.7 mph 21.9 mph 0.00 in Rain Light Rain